Home   Weather   Bruck an der Mur   Past weeks

Flag for Austria Past Weather in Bruck an der Mur, Styria, Austria — Yesterday and Last 2 Weeks

Now
45 °F

Fog.


Feels Like: 45 °F
Forecast: 38 / 71 °F
Wind: 1 mph from West

Location: Zeltweg

Current Time: Sep 27, 2016 at 9:10:12 AM

Latest Report: Sep 27, 2016 at 8:20 AM


Visibility: 0 mi

Pressure: 30.27 "Hg

Humidity: 100%

Dew Point: 45 °F

Location of Bruck an der MurLocation

Past Weather in Bruck an der Mur — Graph

°F

Bruck an der Mur Temperature Yesterday

Maximum temperature yesterday: 68 °F (at 3:20 PM)
Minimum temperature yesterday: 43 °F (at 5:50 AM)
Average temperature yesterday: 55 °F

High & Low Weather Summary for the Past Weeks

 TemperatureHumidityPressure
High81 °F (Sep 12, 4:20 PM)100% (Sep 12, 8:20 AM)30.39 "Hg (Sep 12, 8:20 AM)
Low37 °F (Sep 22, 4:50 AM)33% (Sep 24, 3:50 PM)29.83 "Hg (Sep 17, 7:50 AM)
Average59 °F72%30.07 "Hg
* Reported Sep 12 7:20 AM — Sep 27 7:50 AM, Bruck an der Mur, Weather by CustomWeather, © 2016

Note: Actual official high and low records may vary slightly from our data, if they occured in-between our weather recording intervals... More about our weather records

Advertising

Bruck an der Mur Weather History for the Previous 24 Hours

Scroll right to see more
 ConditionsComfort  
Time TempWeatherWind HumidityBarometerVisibility
7:50 AM
Tue, Sep 27
43 °FFog.1 mph100%30.27 "Hg1 mi
7:20 AM43 °FFog.2 mph100%30.27 "Hg0 mi
6:50 AM41 °FSleet. Overcast.1 mph100%30.27 "Hg0 mi
5:50 AM41 °FSleet. Passing clouds.1 mph100%30.24 "Hg1 mi
4:50 AM45 °FSleet. Partly cloudy.1 mph93%30.24 "Hg1 mi
10:50 PM
Mon, Sep 26
48 °FPassing clouds.2 mph87%30.24 "Hg9 mi
9:50 PM52 °FPassing clouds.2 mph88%30.24 "Hg9 mi
8:50 PM55 °FPassing clouds.5 mph77%30.21 "Hg9 mi
7:50 PM59 °FPartly cloudy.5 mph63%30.18 "Hg9 mi
6:50 PM57 °FPartly cloudy.3 mph77%30.24 "Hg16 mi
5:50 PM63 °FPartly sunny.6 mph59%30.15 "Hg16 mi
4:50 PM64 °FPartly sunny.5 mph49%30.15 "Hg16 mi
4:20 PM66 °FPartly sunny.6 mph46%30.15 "Hg16 mi
3:50 PM66 °FPartly sunny.6 mph43%30.15 "Hg16 mi
3:20 PM68 °FPartly sunny.6 mph38%30.15 "Hg16 mi
2:50 PM66 °FPartly sunny.6 mph43%30.15 "Hg16 mi
2:20 PM66 °FPartly sunny.3 mph49%30.18 "Hg16 mi
1:50 PM64 °FPartly sunny.3 mph56%30.18 "Hg16 mi
1:20 PM63 °FPartly sunny.2 mph59%30.18 "Hg12 mi
12:50 PM61 °FPartly sunny.1 mph63%30.18 "Hg12 mi
12:20 PM59 °FPartly sunny.1 mph68%30.21 "Hg12 mi
11:50 AM55 °FPartly sunny.2 mph77%30.21 "Hg12 mi
11:20 AM54 °FPartly sunny.3 mph82%30.21 "Hg6 mi
10:50 AM50 °FFog.3 mph88%30.21 "Hg3 mi
10:20 AM48 °FFog.2 mph94%30.21 "Hg3 mi
9:50 AM46 °FFog.2 mph93%30.21 "Hg2 mi
9:20 AM45 °FQuite cool.1 mph100%30.21 "Hg1 mi
Weather by CustomWeather, © 2016

See weather overviewHow to use our weather pages